Dewpoint
8 7 7 7 7 5 4 1 -1 2 1 -1 -8 -11 -14 -11 -10 -10 -14 -17 -15 -10 -8 -9 -10 -9 -6 -5 -7 -8 -10 -10 -9 -8 -7 -6 -6 -5 -5 -6 -5 -4 -5 -5 -5 -4 -4
8 7 7 7 7 6 5 4 2 -2 2 2 0 -4 -10 -11 -14 -16 -16 -14 -14 -11 -6 -7 -9 -12 -7 -3 -6 -8 -8 -10 -9 -8 -9 -6 -6 -5 -6 -6 -5 -4 -4 -4 -5 -4 -3
8 8 7 6 6 6 6 5 4 3 0 -0 1 -0 -1 -4 -11 -12 -14 -14 -13 -12 -10 -8 -7 -8 -8 -6 -5 -6 -8 -8 -9 -9 -9 -8 -6 -5 -5 -5 -5 -7 -6 -6 -6 -4 -2
8 8 7 6 6 5 5 5 4 4 4 3 -1 -0 -1 -1 -1 -9 -12 -13 -13 -14 -8 -8 -7 -6 -7 -4 -5 -6 -7 -8 -8 -8 -9 -9 -7 -5 -4 -6 -4 -5 -6 -5 -6 -2 -3
8 8 8 7 6 4 3 3 3 3 3 3 3 -0 -1 -1 -1 -1 -2 -5 -8 -15 -12 -8 -9 -7 -6 -5 -6 -6 -5 -7 -8 -7 -7 -8 -7 -4 -4 -4 -5 -5 -4 -4 -5 -3 -3
7 8 7 6 5 2 -1 -2 -1 -0 0 1 2 3 -0 -1 -2 -4 -3 -2 -1 -4 -11 -12 -9 -8 -8 -6 -6 -5 -5 -7 -8 -7 -4 -5 -4 -3 -3 -4 -3 -6 -5 -5 -5 -5 -3
2 3 2 0 -2 -6 -8 -9 -8 -8 -6 -5 -2 1 2 -1 -3 -4 -4 -3 -5 -3 -5 -8 -5 -7 -4 -4 -4 -5 -4 -6 -7 -5 -3 -3 -3 -3 -4 -4 -6 -6 -5 -4 -5 -6 -4
-8 -9 -10 -10 -11 -12 -12 -12 -11 -12 -13 -13 -11 -6 0 -0 -2 -4 -6 -4 -5 -4 -5 -4 -3 -3 -4 -4 -5 -4 -4 -5 -4 -3 -3 -2 -1 -4 -5 -5 -5 -5 -4 -3 -4 -5 -3
-10 -11 -12 -12 -12 -12 -12 -11 -12 -13 -14 -14 -16 -16 -8 1 -1 -3 -7 -7 -7 -4 -4 -5 -3 -3 -4 -4 -4 -4 -3 -5 -5 -4 -2 -2 -4 -5 -6 -5 -4 -4 -3 -3 -3 -3 -3
-11 -12 -12 -13 -12 -12 -11 -11 -11 -12 -13 -14 -15 -17 -17 -4 -1 -1 -4 -2 -2 -1 -1 -3 -3 -3 -3 -3 -4 -3 -3 -5 -4 -3 -3 -2 -4 -5 -5 -4 -4 -2 -4 -4 -3 -2 -0
-11 -12 -12 -13 -12 -11 -10 -10 -11 -11 -12 -13 -14 -15 -16 -14 -2 1 1 1 1 2 2 -3 -1 -2 -2 -3 -3 -2 -3 -5 -5 -3 -4 -2 -3 -4 -3 -3 -5 -3 -4 -3 -3 -2 1
-10 -11 -11 -12 -10 -10 -10 -9 -9 -9 -10 -11 -10 -11 -13 -13 -10 0 1 2 3 1 2 -1 -1 -1 -1 -1 -2 -2 -3 -4 -4 -4 -3 -3 -4 -4 -4 -4 -5 -5 -2 -0 1 1 4
-6 -7 -4 -7 -6 -5 -6 -6 -7 -7 -7 -8 -7 -7 -8 -11 -6 -2 0 4 2 4 -3 0 -0 -0 -0 -0 -1 -1 -1 -1 -1 -0 1 -1 -1 -4 -5 -3 -5 -3 -1 4 4 5 5
5 5 4 3 3 2 0 -0 -1 -1 -2 -5 -6 -5 -5 -7 -4 1 -0 1 3 -2 -0 0 -0 -0 1 0 -0 -0 -0 1 -1 -2 0 1 3 -1 -4 -2 -1 -2 -0 4 6 5 2
5 5 5 5 5 5 3 3 3 2 -0 -1 -2 -2 -2 -4 2 1 2 3 -1 -1 -1 1 -0 1 1 1 -0 -0 0 -0 -2 -1 1 2 2 -3 -5 -5 -3 -0 1 -1 1 2 4
4 4 4 5 5 5 5 5 4 4 3 2 0 -0 -0 3 2 3 2 4 0 -0 -1 -1 1 1 2 1 0 -0 -0 -2 -1 -2 -3 -1 2 -2 -5 -6 -5 -2 -2 2 2 5 7
4 5 5 5 5 5 4 5 4 4 3 3 2 2 -0 3 3 3 3 2 1 0 -1 -0 1 1 1 1 1 0 -0 -2 -2 -2 -2 -2 0 0 -4 -2 -1 -2 -0 -1 1 4 6
4 4 3 3 3 3 2 3 3 3 3 3 3 4 2 3 4 1 2 -0 1 0 -1 -1 -1 -0 1 0 1 1 1 -1 -2 -3 -1 -2 -0 2 1 -2 -3 -3 -2 -1 2 4 6
-2 -2 -4 -5 -5 -5 -4 -2 -2 -4 -1 2 5 5 4 5 5 3 1 1 2 1 -0 -1 -0 -0 -1 1 2 1 0 -1 -3 -3 -1 -2 1 3 2 1 1 -0 -1 -2 2 4 4
-13 -13 -13 -14 -15 -15 -16 -16 -16 -11 -8 -4 5 5 4 5 4 2 3 4 4 2 1 -0 -0 -1 0 1 0 1 2 0 -2 -3 -3 -2 1 2 5 2 2 3 2 -1 1 6 6
-14 -14 -14 -16 -17 -17 -20 -21 -20 -18 -18 -10 4 4 5 4 3 4 4 4 5 5 3 2 2 0 1 3 2 2 1 1 0 -1 -1 -1 4 3 3 2 3 3 3 3 2 3 7
-8 -9 -8 -9 -10 -11 -13 -15 -20 -22 -19 -4 3 3 2 3 3 4 4 4 5 5 5 5 5 4 4 6 6 7 5 4 3 1 -0 0 5 4 5 3 2 3 3 4 4 3 4
-3 -2 -2 -3 -4 -5 -8 -11 -12 -14 -18 -12 -12 -10 -2 -1 1 3 2 2 3 1 2 2 2 3 4 5 4 4 5 3 3 4 3 4 5 6 7 5 5 7 6 5 4 3 4
-4 -4 -4 -3 -3 -3 -3 -4 -5 -4 -4 -7 -4 -4 -2 -2 -1 -1 -2 -5 -6 -4 -3 -3 -1 -0 1 2 1 2 4 5 4 4 3 5 5 5 7 6 7 3 -3 -0 3 1 -1
-5 -5 -5 -5 -4 -3 -4 -4 -4 -4 -3 -4 -4 -3 -3 -4 -3 -4 -4 -4 -6 -4 -4 -4 -3 -3 -1 2 3 5 5 6 5 4 4 3 5 6 7 6 3 2 -2 -1 0 -1 -5
-5 -5 -5 -6 -4 -4 -5 -4 -4 -4 -4 -4 -4 -4 -4 -3 -5 -3 -4 -4 -2 -3 -3 -8 -11 -5 -9 -3 -0 4 5 6 6 5 1 4 4 6 7 7 7 -3 -5 -6 -4 1 -7
-5 -5 -5 -5 -6 -4 -5 -5 -5 -5 -4 -5 -5 -5 -5 -5 -6 -5 -4 -4 -5 -5 -4 -5 -4 -7 -10 -1 0 1 1 4 3 5 4 4 5 6 6 7 -1 -9 -10 -7 1 -5 -10
-4 -4 -4 -4 -5 -5 -5 -5 -5 -5 -5 -5 -7 -6 -5 -5 -6 -6 -6 -6 -5 -5 -5 -6 -5 -6 -3 -1 -1 0 2 0 -1 -1 1 1 1 2 2 4 3 -11 -9 -6 -10 -11 -11
-3 -3 -3 -4 -4 -4 -4 -5 -5 -6 -4 -3 -3 -4 -5 -4 -5 -9 -8 -8 -6 -6 -4 -5 -5 -5 -5 -3 -6 -6 -5 -4 -1 -2 -5 -1 -7 -5 -8 -8 -11 -13 -13 -12 -12 -12 -12
Wind_Speed
16 18 19 20 21 23 24 24 20 15 12 9 7 4 2 1 2 3 3 4 4 5 6 3 5 5 3 5 5 4 2 2 2 2 3 5 5 3 2 2 1 2 2 4 4 5 6
14 16 18 19 19 21 22 24 23 19 14 12 10 7 4 3 3 4 4 5 5 6 8 9 9 7 5 3 3 2 3 2 2 2 3 5 4 3 2 2 2 2 4 6 5 5 6
12 15 16 17 18 19 20 21 22 22 19 15 13 9 7 6 5 6 6 7 7 6 8 8 7 6 7 8 4 2 2 3 2 2 2 3 3 4 3 1 1 1 4 5 5 3 4
11 13 15 16 17 18 18 19 20 20 21 20 16 12 11 8 7 7 8 9 9 9 6 4 6 6 6 6 6 4 3 4 4 3 2 2 2 3 2 2 3 2 3 4 1 4 1
10 12 14 16 17 17 18 18 18 19 19 20 20 16 13 8 4 5 8 9 10 12 11 11 10 6 6 5 6 5 4 3 4 3 3 2 3 2 2 3 4 5 2 3 7 7 2
11 12 14 15 17 17 17 18 18 18 18 18 19 18 16 8 6 9 8 9 10 10 11 11 10 5 6 3 5 5 5 3 4 3 2 3 1 2 2 3 4 4 3 4 5 1 2
12 13 14 15 16 17 17 18 18 18 18 18 18 18 17 10 8 9 6 5 4 4 8 7 3 4 4 5 7 5 5 3 4 3 3 1 2 6 8 6 2 2 2 5 4 3 3
13 14 14 15 15 15 16 17 17 18 18 18 18 17 17 13 6 8 5 2 2 3 8 13 14 12 10 7 4 6 6 4 3 4 2 3 7 4 3 4 2 2 2 6 6 2 3
13 14 15 15 15 16 16 17 18 19 19 19 18 17 15 14 6 8 5 5 5 7 3 4 6 6 5 7 4 5 6 3 3 3 6 6 1 4 3 3 3 3 5 4 6 5 2
13 14 15 15 16 16 17 18 19 19 19 20 19 18 16 13 5 10 5 9 9 8 4 4 3 3 4 4 3 6 5 3 1 5 5 5 1 4 3 4 7 3 5 3 2 3 3
15 15 16 15 16 17 18 19 20 21 21 20 20 19 17 13 9 7 9 10 9 3 4 2 3 3 4 4 1 3 5 3 4 4 4 6 6 4 5 7 7 5 2 2 1 2 3
16 17 16 17 16 17 19 20 20 21 21 21 20 20 18 14 10 8 9 8 3 5 6 1 2 2 1 3 2 3 3 3 1 0 2 6 1 5 6 2 4 5 3 4 3 2 1
18 16 15 16 17 18 19 20 21 22 22 22 21 21 20 15 8 8 7 4 5 4 2 2 4 3 2 3 3 5 4 3 5 1 4 2 4 2 3 3 1 3 4 3 4 2 6
16 15 18 17 19 20 22 23 23 24 24 23 22 21 19 13 9 6 4 4 4 4 6 2 2 1 4 5 4 3 1 3 5 3 2 4 7 8 5 6 7 6 7 5 6 4 5
14 18 21 21 22 25 26 24 25 25 25 25 23 22 17 12 4 3 2 2 7 7 3 2 1 3 3 3 4 3 6 5 7 10 8 6 6 2 3 2 3 4 5 2 1 2 2
16 18 22 22 24 28 29 28 27 26 26 25 24 21 10 3 3 4 3 5 5 4 1 1 7 7 6 4 3 4 5 4 4 9 1 3 5 2 2 2 2 3 3 3 2 4 6
18 21 22 22 24 29 25 27 29 31 28 25 20 10 4 5 8 3 3 7 6 8 5 6 6 5 8 5 7 5 5 3 4 3 4 4 4 3 4 7 9 2 2 2 2 4 5
16 17 19 20 21 24 24 25 25 28 29 23 11 3 8 13 3 1 2 4 3 4 3 5 3 7 7 7 6 6 9 8 9 10 7 6 5 6 12 3 2 4 9 10 6 7 5
16 18 19 21 23 24 24 23 21 21 22 23 14 8 7 2 2 3 5 5 5 3 4 3 4 6 3 6 4 8 6 6 11 9 9 7 4 4 8 2 3 5 5 5 2 2 19
16 17 18 20 21 22 22 22 21 19 17 14 7 4 5 5 3 1 3 6 4 6 5 6 5 3 2 5 6 5 4 4 8 7 9 11 6 8 17 12 4 5 7 7 12 8 8
18 19 20 20 22 23 23 23 22 18 16 10 3 4 4 4 4 3 3 5 14 12 6 4 3 4 6 5 4 7 6 4 5 7 6 7 18 9 19 20 15 18 19 12 15 17 11
19 20 21 22 23 24 25 25 23 22 17 3 6 8 11 9 16 10 8 7 14 13 10 15 14 14 17 20 16 21 17 16 15 3 6 4 14 9 19 13 13 19 25 22 24 25 21
18 19 20 21 22 23 23 23 23 24 22 10 12 9 5 6 8 9 4 8 12 12 10 15 20 18 11 14 29 31 30 28 23 13 8 6 5 6 16 16 16 17 27 27 24 19 19
20 21 20 21 22 21 23 22 21 19 18 14 12 10 4 4 3 4 11 19 16 17 12 20 20 13 13 29 42 30 27 24 19 22 20 12 12 4 10 10 16 10 3 2 16 10 3
21 21 21 22 22 20 19 20 19 16 14 14 9 6 4 4 5 14 8 5 20 19 7 16 13 18 29 19 6 7 4 6 16 23 20 20 18 9 10 16 17 4 5 4 1 2 7
22 22 21 22 22 21 19 18 17 16 13 14 9 8 7 8 3 6 9 11 5 4 6 8 25 16 19 4 4 7 6 3 5 5 3 14 22 16 14 17 20 6 6 17 5 2 13
22 22 22 23 18 21 21 17 17 14 13 11 12 10 11 10 10 9 2 4 10 7 4 9 14 18 11 2 3 4 8 6 9 7 7 5 6 16 20 14 5 8 18 17 2 4 12
30 29 25 22 22 21 20 19 14 12 13 14 16 11 13 12 23 25 16 16 16 14 7 13 12 3 4 4 3 3 5 5 6 15 7 4 6 5 7 6 4 29 7 6 1 14 13
30 30 32 29 28 25 21 20 16 15 14 14 20 19 14 19 21 34 40 30 30 27 26 7 8 10 6 2 3 3 6 3 2 6 5 4 4 4 5 3 6 15 12 15 10 12 14
Wind_Direction
40 39 39 39 39 39 36 36 34 33 31 28 23 14 345 275 251 248 238 225 224 240 226 278 319 313 276 259 257 289 276 259 286 284 228 220 221 190 205 198 238 189 244 227 249 234 238
35 34 34 34 35 37 35 36 34 33 29 23 17 10 349 314 286 257 236 234 251 254 252 277 295 293 274 263 271 278 256 245 250 237 228 211 215 191 164 199 181 244 265 265 271 240 235
26 26 26 26 28 30 31 32 32 32 29 21 13 3 346 317 283 269 257 256 256 264 276 279 292 287 270 257 253 305 270 230 209 201 186 172 181 190 173 204 249 277 320 308 218 220 233
13 14 16 16 18 20 21 24 26 25 25 23 16 7 353 325 287 273 266 263 260 266 265 310 293 293 262 240 249 257 308 240 219 225 199 178 165 171 199 159 19 42 56 1 216 154 247
360 2 3 4 5 8 9 11 14 15 17 17 15 9 4 355 348 291 279 273 270 261 263 275 285 269 264 240 243 249 271 255 234 228 224 211 187 173 137 96 8 7 243 236 312 200 142
350 350 352 353 354 357 358 359 2 4 6 8 10 7 2 354 341 328 302 280 272 263 262 266 251 274 237 231 228 258 259 262 214 212 185 192 137 78 45 97 230 228 279 250 239 237 209
348 346 347 347 349 351 353 354 356 356 356 358 0 1 1 358 352 346 333 306 283 265 234 224 197 245 247 246 263 253 223 231 201 189 197 33 75 222 222 202 172 150 198 251 253 266 269
348 347 349 348 352 352 354 355 356 356 355 353 353 352 354 355 341 357 350 307 356 301 299 245 242 248 252 255 265 227 218 213 179 208 123 17 237 220 118 142 144 152 247 262 283 279 196
348 349 349 350 352 352 354 355 356 357 356 355 352 350 347 349 325 351 1 11 342 330 267 259 224 234 227 222 242 218 199 191 181 188 195 187 245 118 135 157 183 218 198 229 238 332 266
342 344 346 348 349 350 351 352 353 354 354 353 351 351 348 344 332 338 337 344 337 333 43 251 228 218 201 209 268 205 204 210 223 211 169 232 253 173 180 230 155 269 206 171 253 36 255
338 340 340 342 345 345 345 346 348 348 348 350 348 347 347 345 327 328 328 333 332 340 350 187 188 179 197 203 283 217 209 197 221 200 132 254 169 185 197 218 163 223 105 138 96 155 9
333 338 337 338 341 341 341 342 343 343 342 344 345 343 342 337 323 313 326 333 338 40 259 257 159 203 181 198 223 164 180 201 164 155 243 245 262 189 211 129 166 134 96 61 61 100 316
332 340 340 341 341 340 339 338 338 339 338 338 341 340 337 329 316 312 324 322 28 153 338 242 235 180 230 219 238 179 179 187 193 149 249 281 222 224 174 126 51 125 70 318 326 1 230
341 346 341 345 341 339 337 335 334 336 334 332 334 334 330 323 310 303 308 49 205 243 243 334 92 108 220 169 240 190 181 262 226 135 127 207 307 182 178 201 184 179 170 168 246 227 262
330 329 330 338 337 340 338 332 336 336 335 332 332 333 325 312 295 305 198 129 211 211 242 206 14 215 265 245 199 172 214 218 218 175 186 179 265 155 189 151 151 179 184 196 166 117 352
322 325 328 328 328 331 336 338 335 337 340 337 338 335 312 287 304 325 93 232 240 217 198 165 205 182 223 220 187 186 210 205 237 193 63 220 291 194 141 114 42 166 164 79 11 248 245
318 318 317 319 322 325 337 334 333 335 339 342 340 330 317 306 312 261 205 231 273 267 222 191 226 248 223 220 205 210 235 257 212 144 175 157 167 241 130 196 185 129 217 216 178 172 213
323 323 327 327 326 326 330 329 328 331 336 338 355 334 295 294 313 160 222 215 297 281 236 264 222 221 208 209 226 233 224 220 182 157 177 210 172 234 218 237 195 193 203 179 205 234 238
334 332 331 331 330 329 329 328 330 335 339 343 333 287 290 279 227 251 282 277 255 258 229 221 259 212 182 215 239 205 224 244 205 169 179 186 217 309 309 23 14 229 210 216 314 10 243
352 352 348 348 346 343 342 340 336 330 324 325 324 307 286 232 249 219 289 267 269 287 266 248 253 210 178 239 230 266 230 265 210 225 217 167 189 204 254 250 148 208 221 211 220 239 245
9 6 3 2 1 358 360 1 357 343 340 318 244 253 297 296 319 309 316 294 293 288 235 285 271 225 235 271 260 237 237 276 239 238 211 181 256 231 256 260 258 259 258 231 229 235 242
6 4 3 359 356 355 356 358 359 1 1 26 326 351 340 309 315 285 286 266 291 306 307 274 269 308 301 269 260 276 281 271 264 184 197 203 247 222 255 260 241 253 253 246 246 249 250
1 1 358 354 353 354 352 351 355 358 5 25 346 325 328 305 316 309 316 2 343 5 300 348 342 323 310 311 330 315 293 266 259 232 215 186 231 198 259 270 261 252 246 246 247 243 234
357 354 352 350 346 345 346 346 351 1 6 6 1 344 331 290 322 308 308 321 324 333 293 288 298 296 307 314 317 301 281 262 250 252 232 232 230 241 262 264 247 250 17 272 224 248 19
353 351 348 346 342 345 340 340 345 348 356 352 357 355 310 290 311 300 302 352 315 316 300 300 291 325 325 310 293 287 262 253 243 238 238 232 241 252 251 242 257 264 14 11 139 7 355
350 346 344 341 340 340 339 337 334 336 341 336 344 337 305 305 259 284 330 303 317 316 312 281 320 320 318 292 283 292 289 298 267 289 327 246 237 238 244 259 264 44 343 337 301 215 3
347 343 339 338 335 331 332 325 332 333 336 324 316 317 304 281 283 352 303 317 307 308 268 306 340 324 325 287 289 283 279 320 299 324 342 332 291 246 238 245 111 339 308 307 160 1 10
357 352 345 333 332 328 326 326 322 327 330 326 321 307 296 275 287 291 272 275 275 271 275 313 328 3 317 350 314 325 303 39 328 315 318 319 315 321 326 308 240 352 346 36 299 54 48
346 338 335 333 336 332 323 317 317 285 304 314 298 307 296 276 267 283 290 278 276 274 266 269 256 310 285 339 349 351 310 273 319 300 7 302 337 321 9 25 18 23 43 44 64 67 52
Height
1539 1536 1533 1530 1526 1523 1520 1516 1513 1510 1509 1507 1505 1504 1503 1502 1501 1501 1501 1501 1501 1501 1501 1501 1500 1499 1498 1497 1495 1493 1492 1492 1491 1491 1491 1492 1493 1493 1494 1493 1493 1493 1492 1492 1491 1490 1490
1541 1539 1536 1533 1529 1526 1523 1519 1516 1513 1510 1508 1506 1504 1502 1502 1501 1501 1501 1501 1501 1500 1500 1500 1499 1498 1497 1497 1493 1492 1491 1491 1491 1490 1490 1490 1490 1491 1492 1492 1493 1492 1491 1489 1488 1488 1488
1542 1540 1538 1535 1532 1529 1525 1522 1519 1516 1512 1509 1506 1504 1503 1501 1501 1500 1500 1500 1500 1500 1499 1499 1497 1496 1495 1494 1491 1491 1490 1490 1489 1490 1489 1489 1489 1490 1491 1492 1491 1490 1491 1488 1486 1486 1487
1544 1542 1539 1537 1534 1531 1528 1524 1521 1518 1514 1511 1508 1505 1502 1500 1499 1499 1499 1499 1499 1498 1498 1497 1496 1495 1492 1490 1490 1490 1489 1489 1489 1489 1489 1488 1489 1489 1490 1491 1491 1492 1493 1495 1484 1485 1486
1545 1542 1540 1538 1535 1532 1529 1526 1523 1519 1516 1512 1509 1505 1502 1500 1498 1498 1498 1497 1496 1496 1495 1495 1495 1494 1490 1488 1488 1488 1488 1487 1487 1488 1488 1488 1488 1489 1490 1493 1498 1497 1498 1495 1490 1484 1485
1545 1543 1541 1539 1536 1533 1530 1527 1523 1520 1516 1513 1509 1506 1503 1500 1498 1497 1495 1494 1493 1493 1493 1492 1492 1495 1489 1487 1487 1486 1486 1486 1486 1486 1488 1488 1488 1491 1493 1496 1503 1495 1494 1493 1494 1485 1485
1546 1544 1541 1539 1536 1533 1530 1527 1523 1520 1516 1513 1509 1506 1502 1499 1498 1496 1494 1493 1495 1493 1489 1486 1486 1485 1485 1485 1485 1484 1484 1485 1484 1485 1488 1487 1492 1494 1487 1488 1486 1487 1492 1494 1488 1483 1484
1546 1544 1541 1539 1536 1533 1530 1527 1524 1520 1516 1513 1509 1506 1503 1500 1498 1496 1494 1493 1492 1493 1486 1482 1482 1482 1482 1483 1483 1482 1484 1485 1484 1486 1486 1491 1492 1481 1482 1485 1487 1489 1492 1494 1486 1483 1484
1546 1544 1541 1538 1536 1533 1530 1527 1523 1519 1516 1513 1509 1506 1503 1500 1498 1497 1495 1494 1492 1490 1488 1480 1479 1479 1480 1482 1480 1480 1482 1482 1482 1484 1486 1490 1481 1480 1481 1485 1488 1490 1492 1490 1487 1485 1483
1545 1543 1541 1538 1536 1533 1530 1527 1523 1519 1516 1513 1509 1506 1503 1500 1500 1497 1495 1493 1491 1490 1495 1481 1478 1478 1479 1479 1479 1478 1479 1482 1482 1483 1484 1485 1480 1480 1482 1484 1487 1489 1483 1483 1485 1490 1495
1545 1543 1540 1537 1535 1533 1530 1526 1523 1519 1516 1513 1509 1506 1503 1500 1498 1497 1496 1492 1491 1490 1518 1479 1477 1477 1477 1479 1479 1477 1478 1479 1480 1480 1483 1478 1480 1482 1483 1480 1481 1482 1481 1484 1487 1492 1496
1544 1542 1539 1537 1534 1532 1529 1525 1522 1518 1515 1512 1508 1505 1502 1499 1497 1496 1494 1492 1491 1501 1513 1476 1475 1476 1477 1476 1476 1476 1477 1479 1479 1479 1480 1478 1476 1476 1474 1475 1478 1480 1484 1490 1498 1499 1502
1543 1541 1538 1536 1534 1531 1528 1524 1521 1517 1513 1510 1507 1503 1500 1498 1496 1494 1493 1493 1504 1510 1479 1477 1475 1475 1476 1475 1474 1474 1476 1478 1481 1482 1483 1476 1475 1471 1471 1474 1478 1479 1486 1497 1495 1501 1486
1543 1541 1538 1536 1533 1530 1527 1523 1519 1515 1511 1508 1505 1502 1498 1496 1494 1493 1493 1495 1504 1488 1483 1473 1474 1475 1477 1474 1472 1473 1475 1478 1473 1475 1485 1483 1482 1470 1467 1467 1471 1480 1482 1490 1487 1487 1480
1543 1541 1538 1536 1533 1529 1526 1522 1518 1514 1509 1505 1501 1499 1495 1493 1492 1492 1493 1504 1495 1486 1475 1475 1476 1478 1477 1473 1474 1474 1476 1473 1465 1467 1475 1484 1476 1464 1464 1464 1466 1475 1481 1474 1477 1486 1493
1542 1540 1537 1535 1532 1528 1524 1520 1516 1512 1508 1503 1499 1495 1492 1491 1491 1491 1493 1494 1483 1475 1474 1474 1479 1475 1479 1472 1475 1476 1470 1461 1460 1459 1460 1464 1472 1462 1465 1465 1468 1468 1470 1480 1488 1481 1481
1541 1539 1536 1533 1530 1526 1523 1519 1514 1510 1506 1502 1498 1493 1491 1490 1490 1490 1495 1490 1478 1472 1474 1476 1474 1473 1473 1470 1473 1474 1463 1457 1455 1459 1461 1463 1468 1464 1465 1466 1464 1473 1473 1473 1476 1477 1472
1540 1537 1534 1531 1528 1525 1521 1517 1513 1508 1505 1502 1498 1497 1490 1489 1492 1490 1489 1481 1477 1472 1472 1471 1470 1470 1470 1468 1468 1471 1465 1455 1451 1453 1461 1458 1467 1468 1459 1451 1451 1453 1456 1456 1461 1461 1464
1538 1535 1533 1530 1525 1522 1518 1514 1512 1508 1503 1501 1499 1494 1487 1487 1490 1489 1482 1479 1475 1472 1471 1469 1468 1466 1464 1465 1467 1460 1455 1449 1449 1450 1454 1455 1463 1466 1452 1455 1455 1454 1453 1451 1450 1452 1437
1538 1535 1532 1528 1524 1521 1517 1512 1510 1506 1503 1503 1501 1496 1486 1483 1483 1484 1483 1478 1475 1470 1468 1466 1463 1462 1463 1462 1460 1453 1452 1447 1447 1446 1444 1445 1453 1451 1445 1438 1446 1453 1447 1446 1441 1442 1438
1539 1536 1532 1528 1524 1521 1516 1512 1509 1505 1502 1501 1500 1493 1489 1485 1482 1483 1483 1479 1475 1474 1469 1467 1461 1462 1462 1460 1457 1453 1451 1447 1444 1443 1443 1442 1441 1445 1431 1430 1434 1432 1431 1434 1432 1429 1432
1540 1536 1532 1528 1525 1521 1516 1513 1510 1506 1501 1501 1501 1498 1494 1490 1486 1482 1480 1473 1472 1470 1470 1464 1463 1461 1459 1455 1455 1449 1450 1446 1441 1440 1440 1438 1432 1437 1431 1428 1430 1427 1420 1422 1419 1414 1414
1540 1536 1533 1529 1525 1522 1517 1514 1511 1507 1504 1502 1502 1501 1500 1494 1490 1486 1483 1485 1480 1483 1473 1468 1472 1469 1459 1453 1454 1446 1440 1433 1432 1429 1432 1434 1434 1425 1414 1418 1417 1410 1395 1401 1399 1399 1398
1538 1535 1532 1529 1525 1522 1518 1515 1512 1510 1508 1507 1506 1503 1501 1497 1493 1490 1485 1483 1478 1479 1476 1471 1469 1467 1459 1454 1444 1437 1432 1426 1422 1418 1418 1420 1424 1421 1404 1414 1399 1377 1393 1390 1386 1390 1401
1537 1534 1531 1528 1524 1521 1518 1515 1513 1510 1509 1507 1505 1504 1503 1497 1494 1490 1486 1486 1482 1477 1474 1470 1466 1465 1458 1452 1445 1429 1420 1414 1407 1407 1407 1408 1404 1401 1396 1390 1374 1382 1406 1405 1396 1404 1415
1536 1533 1530 1527 1523 1520 1517 1514 1512 1509 1508 1506 1504 1504 1503 1499 1492 1491 1489 1486 1483 1480 1472 1466 1463 1459 1456 1452 1445 1430 1417 1410 1405 1402 1400 1396 1394 1392 1387 1378 1372 1419 1419 1416 1408 1403 1423
1535 1531 1528 1525 1522 1519 1516 1513 1510 1508 1506 1505 1504 1503 1502 1499 1492 1490 1489 1488 1486 1482 1478 1470 1465 1458 1453 1449 1447 1436 1427 1421 1415 1408 1407 1404 1397 1381 1368 1368 1404 1433 1425 1413 1397 1430 1434
1534 1530 1526 1522 1519 1516 1513 1510 1508 1506 1505 1504 1501 1500 1500 1494 1489 1484 1484 1484 1483 1482 1478 1472 1470 1462 1456 1456 1451 1442 1429 1435 1438 1430 1426 1427 1422 1408 1403 1381 1379 1433 1424 1423 1445 1438 1440
1534 1529 1525 1520 1516 1512 1509 1506 1504 1502 1500 1500 1497 1496 1495 1493 1486 1481 1476 1474 1474 1471 1476 1474 1469 1466 1464 1460 1460 1458 1453 1444 1434 1437 1426 1428 1455 1447 1456 1451 1460 1454 1452 1452 1450 1446 1444